Location: Innsbruck
(47.2657°N, 11.3914°E)
Time: 02:41:21
(UTC+02:00)

Envisat - Pass Details

Date: 09 February 2023
Orbit: 763 x 765 km, 98.2° (Epoch: 28 March)

Event Time Altitude Azimuth Distance (km) Brightness Sun altitude
Rises 02:59:06 0° 30° (NNE) 3,243 6.9 -45.0°
Reaches altitude 10° 03:02:27 10° 53° (NE) 2,310 6.1 -44.5°
Enters shadow 03:02:48 11° 56° (ENE) 2,237 6.0 -44.5°
